Regional Weather Roundup
Issued by NWS Green Bay, WI

Home | Current Version | Previous Version | Graphics & Text | Print | Product List | Glossary Off
Versions: 1 2 3 4 5 6 7 8 9 10 11 12 13 14 15 16 17 18 19 20 21 22 23 24 25 26 27 28 29 30 31 32 33 34 35 36 37 38 39 40 41 42 43 44 45 46 47 48 49 50

000
ASUS43 KGRB 181910
RWRGRB

NORTH-CENTRAL AND NORTHEAST WISCONSIN REGIONAL WEATHER ROUNDUP
NATIONAL WEATHER SERVICE GREEN BAY WI
200 PM CDT THU SEP 18 2014

WIZ005-009-010>012-018-019-182000-
NORTH CENTRAL WISCONSIN

CITY           SKY/WX    TMP DP  RH WIND       PRES   REMARKS
IRONWOOD       CLOUDY    54  46  76 W6        30.12F
MANITOWISH WTR CLOUDY    48  44  88 S7        30.16S
ARBOR VITAE    CLOUDY    52  46  80 SE8       30.16F
EAGLE RIVER    CLOUDY    52  41  65 S5        30.16F
LAND O LAKES   CLOUDY    53  42  65 S6        30.16F
RHINELANDER    CLOUDY    50  42  74 E3        30.17F
PHILLIPS       CLOUDY    50  46  85 S6        30.15F
ANTIGO         CLOUDY    51  44  75 SE6       30.18F
TOMAHAWK       CLOUDY    53  44  71 CALM      30.17F
MERRILL        CLOUDY    52  44  75 S5        30.17F
$$

WIZ013-073-182000-
NORTHEAST WISCONSIN

CITY           SKY/WX    TMP DP  RH WIND       PRES   REMARKS
IRON MOUNTAIN  SUNNY     56  38  50 VRB3      30.17F
MARINETTE      SUNNY     54  41  62 E8        30.20F
OCONTO         CLOUDY    55  43  64 S5        30.19F
$$

WIZ017-030-035>037-045-182000-
CENTRAL WISCONSIN

CITY           SKY/WX    TMP DP  RH WIND       PRES   REMARKS
MEDFORD        CLOUDY    49  45  85 E6        30.17S
WAUSAU         CLOUDY    52  44  74 VRB3      30.17F
MOSINEE        CLOUDY    52  46  82 SE6       30.19F
MARSHFIELD     CLOUDY    52  47  83 SE8       30.17F
WISC RAPIDS    CLOUDY    52  46  80 E7        30.19F
STEVENS POINT  CLOUDY    49  43  81 SE8       30.19F
WAUPACA        CLOUDY    55  46  70 E3        30.20F
SHAWANO        CLOUDY    54  44  68 NE3       30.20F
CLINTONVILLE   CLOUDY    52  43  71 SE3       30.20F
$$

WIZ038-039-048-051-182000-
FOX VALLEY

CITY           SKY/WX    TMP DP  RH WIND       PRES   REMARKS
NWS GREEN BAY  CLOUDY    55  45  68 SE3       30.20F
APPLETON       PTSUNNY   55  45  67 VRB5      30.20F
OSHKOSH        CLOUDY    56  48  74 VRB5      30.18F
FOND DU LAC    CLOUDY    56  47  71 VRB5      30.18F
$$

WIZ022-050-052-182000-
EAST CENTRAL WISCONSIN

CITY           SKY/WX    TMP DP  RH WIND       PRES   REMARKS
STURGEON BAY   CLOUDY    54  43  66 CALM      30.20F
MANITOWOC      CLOUDY    56  48  74 E6        30.20F
SHEBOYGAN      CLOUDY    58  48  69 E6        30.19F
$$

LMZ563-521-522-541>543-182000-
LAKESHORE

STATION/POSITION TIME  TEMP    WIND        PRES    VSBY  WAVE
                       AIR SEA DIR/SP/G                  HT/PER
                 (UTC) (F)     (DEG/KT/KT) (MB)    (MI)  (FT/S)
SHEBOYGAN LKSHOR 1900   50 49   30/ 11/ 12 1022.9F
KEWAUNEE LKSHORE 1900   54      50/  6/  9 1021.8F
TWO RIVERS CG    1900   55 59              1022.6      6   1
NORTHPORT PIER   1900   52      80/  6/  8 1023.0S
N MID LAKE BUOY  1900   51 59   50/  6/  8 1023.3F         1/ 3
S GREEN BAY BUOY 1900   52     VRB  4/  8  1023.5F
STURGEON BAY CG  1800   53 57   60/ 10     1016.5          1
CHAMBERS ISLAND  1900   53     360/  7/  9 1023.4F
MENOMINEE LKSHOR 1900   50      30/  7/  9 1023.4F
$$



USA.gov is the U.S. government's official web portal to all federal, state and local government web resources and services.